Weather History for KLNC - November, 2011

Change the Weather History Date:

Sunday, November 6, 2011

  Actual Average (KRBD) Record (KRBD)
Temperature  
Mean Temperature 68 °F -  
Max Temperature 77 °F 65 °F 80 °F (2004)
Min Temperature 60 °F 48 °F 36 °F (2010)
Cooling Degree Days 4    
Growing Degree Days 18 (Base 50)    
Moisture  
Dew Point 60 °F    
Average Humidity 77    
Maximum Humidity 94    
Minimum Humidity 61    
Precipitation  
Precipitation 0.00 in - - ()
Sea Level Pressure  
Sea Level Pressure 29.98 in    
Wind  
Wind Speed 11 mph (SSE)    
Max Wind Speed 16 mph    
Max Gust Speed 23 mph    
Visibility 10 miles    
Events Rain    
Averages and records for this station are not official NWS values.
T = Trace of Precipitation, MM = Missing Value Source: NWS Daily Summary

Daily Weather History Graph

Daily Weather History Graph

Search for Another Location

Airport or City:

Trip Planner

Search our weather history database for the weather conditions in past years. The results will help you decide how hot, cold, wet, or windy it might be!

Date:

Astronomy

Nov. 06, 2011 Rise Set
Actual Time 6:48 AM CST 5:32 PM CST
Civil Twilight 6:22 AM CST 5:57 PM CST
Nautical Twilight 5:53 AM CST 6:27 PM CST
Astronomical Twilight 5:24 AM CST 6:55 PM CST
Moon 3:07 PM CST (11/6) 3:06 AM CST (11/6)
Length of Visible Light 11h 34m
Length of Day
10h 43m
Waxing Gibbous, 86% of the Moon is Illuminated
Nov 6
Waxing Gibbous
Nov 10
Full
Nov 18
Last Quarter
Nov 25
New
Dec 2
First Quarter

Hourly Weather History & Observations

Time (CST) Temp. Dew Point Humidity Pressure Visibility Wind Dir Wind Speed Gust Speed Precip Events Conditions
12:15 AM 62.6 °F 53.6 °F 72% 29.92 in 10.0 mi SSE 11.5 mph - N/A   Scattered Clouds
12:35 AM 64.4 °F 53.6 °F 68% 29.92 in 10.0 mi SSE 15.0 mph 19.6 mph N/A   Mostly Cloudy
12:55 AM 64.4 °F 55.4 °F 73% 29.92 in 10.0 mi South 12.7 mph 19.6 mph N/A   Overcast
1:15 AM 64.4 °F 55.4 °F 73% 29.92 in 10.0 mi SSE 16.1 mph 21.9 mph N/A   Overcast
1:35 AM 64.4 °F 55.4 °F 73% 29.92 in 10.0 mi South 13.8 mph 20.7 mph N/A   Overcast
1:55 AM 64.4 °F 55.4 °F 73% 29.92 in 10.0 mi South 13.8 mph 23.0 mph N/A   Scattered Clouds
1:15 AM 64.4 °F 57.2 °F 77% 29.93 in 10.0 mi South 13.8 mph 21.9 mph N/A   Mostly Cloudy
1:35 AM 64.4 °F 57.2 °F 77% 29.93 in 10.0 mi SSE 13.8 mph 19.6 mph N/A   Mostly Cloudy
1:55 AM 62.6 °F 57.2 °F 82% 29.94 in 10.0 mi SSE 12.7 mph - N/A   Overcast
2:15 AM 62.6 °F 57.2 °F 82% 29.94 in 10.0 mi SSE 11.5 mph - N/A   Overcast
2:35 AM 62.6 °F 57.2 °F 82% 29.95 in 10.0 mi SSE 12.7 mph 18.4 mph N/A   Overcast
2:55 AM 62.6 °F 57.2 °F 82% 29.95 in 10.0 mi SSE 10.4 mph - N/A   Overcast
3:15 AM 62.6 °F 57.2 °F 82% 29.97 in 10.0 mi South 8.1 mph - N/A   Overcast
3:35 AM 62.6 °F 59.0 °F 88% 29.97 in 10.0 mi South 5.8 mph - N/A   Overcast
3:55 AM 62.6 °F 59.0 °F 88% 29.97 in 10.0 mi SSE 11.5 mph - N/A   Overcast
4:15 AM 62.6 °F 59.0 °F 88% 29.98 in 10.0 mi SE 5.8 mph - N/A   Overcast
4:35 AM 62.6 °F 59.0 °F 88% 29.98 in 10.0 mi SSE 9.2 mph - N/A   Overcast
4:55 AM 62.6 °F 59.0 °F 88% 29.98 in 10.0 mi SE 9.2 mph - N/A   Overcast
5:15 AM 62.6 °F 59.0 °F 88% 29.99 in 10.0 mi SE 6.9 mph - N/A   Overcast
5:35 AM 62.6 °F 59.0 °F 88% 29.99 in 10.0 mi SSE 6.9 mph - N/A   Overcast
5:55 AM 62.6 °F 59.0 °F 88% 30.00 in 10.0 mi ESE 4.6 mph - N/A   Overcast
6:15 AM 60.8 °F 59.0 °F 94% 30.01 in 10.0 mi ESE 5.8 mph - N/A   Overcast
6:35 AM 60.8 °F 57.2 °F 88% 30.01 in 10.0 mi Calm Calm - N/A   Overcast
6:55 AM 60.8 °F 59.0 °F 94% 30.02 in 10.0 mi SE 6.9 mph - N/A   Overcast
7:15 AM 60.8 °F 59.0 °F 94% 30.02 in 10.0 mi SE 6.9 mph - N/A   Overcast
7:35 AM 62.6 °F 59.0 °F 88% 30.02 in 10.0 mi SE 8.1 mph - N/A   Overcast
7:55 AM 62.6 °F 59.0 °F 88% 30.03 in 10.0 mi SE 9.2 mph - N/A   Overcast
8:15 AM 62.6 °F 59.0 °F 88% 30.03 in 10.0 mi SE 8.1 mph - N/A   Overcast
8:35 AM 64.4 °F 59.0 °F 83% 30.04 in 10.0 mi SE 11.5 mph - N/A   Overcast
8:55 AM 64.4 °F 60.8 °F 88% 30.04 in 10.0 mi SSE 11.5 mph - N/A   Overcast
9:15 AM 64.4 °F 60.8 °F 88% 30.04 in 10.0 mi SSE 11.5 mph - N/A   Overcast
9:35 AM 66.2 °F 60.8 °F 83% 30.04 in 10.0 mi SSE 9.2 mph 16.1 mph N/A   Overcast
9:55 AM 68.0 °F 60.8 °F 78% 30.04 in 10.0 mi South 10.4 mph 19.6 mph N/A   Overcast
10:15 AM 68.0 °F 60.8 °F 78% 30.04 in 10.0 mi SSE 16.1 mph - N/A   Overcast
10:35 AM 69.8 °F 60.8 °F 73% 30.04 in 10.0 mi South 13.8 mph 19.6 mph N/A   Overcast
10:55 AM 69.8 °F 60.8 °F 73% 30.04 in 10.0 mi South 12.7 mph 21.9 mph N/A   Overcast
11:15 AM 71.6 °F 60.8 °F 69% 30.03 in 10.0 mi SSE 12.7 mph 21.9 mph N/A   Overcast
11:35 AM 71.6 °F 60.8 °F 69% 30.03 in 10.0 mi South 13.8 mph - N/A   Overcast
11:55 AM 71.6 °F 62.6 °F 73% 30.02 in 10.0 mi SSE 10.4 mph 16.1 mph N/A   Overcast
12:15 PM 71.6 °F 62.6 °F 73% 30.01 in 10.0 mi South 12.7 mph 19.6 mph N/A   Overcast
12:35 PM 71.6 °F 62.6 °F 73% 30.00 in 10.0 mi South 12.7 mph 16.1 mph N/A   Overcast
12:55 PM 73.4 °F 62.6 °F 69% 29.99 in 10.0 mi South 10.4 mph 18.4 mph N/A   Overcast
1:15 PM 73.4 °F 62.6 °F 69% 29.98 in 10.0 mi SSE 12.7 mph - N/A   Overcast
1:35 PM 75.2 °F 62.6 °F 65% 29.97 in 10.0 mi SSE 13.8 mph 18.4 mph N/A   Overcast
1:55 PM 75.2 °F 62.6 °F 65% 29.97 in 10.0 mi SSE 8.1 mph 16.1 mph N/A   Overcast
2:15 PM 75.2 °F 62.6 °F 65% 29.97 in 10.0 mi South 11.5 mph - N/A   Overcast
2:35 PM 75.2 °F 62.6 °F 65% 29.96 in 10.0 mi South 11.5 mph - N/A   Overcast
2:55 PM 77.0 °F 62.6 °F 61% 29.96 in 10.0 mi SSE 9.2 mph 17.3 mph N/A   Overcast
3:15 PM 75.2 °F 62.6 °F 65% 29.96 in 10.0 mi SSE 10.4 mph - N/A Rain Light Rain
3:35 PM 77.0 °F 64.4 °F 65% 29.96 in 10.0 mi SSE 9.2 mph - N/A   Overcast
3:55 PM 77.0 °F 64.4 °F 65% 29.96 in 10.0 mi SSE 8.1 mph - N/A   Overcast
4:15 PM 75.2 °F 64.4 °F 69% 29.96 in 10.0 mi SSE 6.9 mph - N/A   Overcast
4:35 PM 77.0 °F 62.6 °F 61% 29.96 in 7.0 mi SSE 10.4 mph - N/A   Overcast
4:55 PM 75.2 °F 62.6 °F 65% 29.96 in 10.0 mi SE 11.5 mph - N/A   Overcast
5:35 PM 73.4 °F 62.6 °F 69% 29.97 in 10.0 mi SE 10.4 mph - N/A   Overcast
5:55 PM 73.4 °F 62.6 °F 69% 29.97 in 10.0 mi SE 9.2 mph - N/A   Overcast
6:15 PM 73.4 °F 62.6 °F 69% 29.98 in 10.0 mi SE 11.5 mph - N/A   Overcast
6:35 PM 71.6 °F 62.6 °F 73% 29.98 in 10.0 mi SSE 6.9 mph - N/A   Overcast
6:55 PM 71.6 °F 62.6 °F 73% 29.99 in 10.0 mi SE 9.2 mph - N/A   Overcast
7:15 PM 71.6 °F 64.4 °F 78% 30.00 in 10.0 mi SE 9.2 mph - N/A   Overcast
7:35 PM 71.6 °F 62.6 °F 73% 29.99 in 10.0 mi SE 9.2 mph - N/A   Overcast
7:55 PM 71.6 °F 62.6 °F 73% 30.00 in 10.0 mi SE 9.2 mph - N/A   Scattered Clouds
8:15 PM 69.8 °F 62.6 °F 78% 30.00 in 10.0 mi SE 8.1 mph - N/A   Scattered Clouds
8:35 PM 69.8 °F 62.6 °F 78% 30.00 in 10.0 mi SSE 8.1 mph - N/A   Mostly Cloudy
8:55 PM 69.8 °F 62.6 °F 78% 30.01 in 10.0 mi SE 6.9 mph - N/A   Overcast
9:15 PM 69.8 °F 62.6 °F 78% 30.01 in 10.0 mi SSE 10.4 mph - N/A   Overcast
9:35 PM 69.8 °F 62.6 °F 78% 30.02 in 10.0 mi SSE 10.4 mph - N/A   Overcast
9:55 PM 69.8 °F 62.6 °F 78% 30.02 in 10.0 mi SSE 10.4 mph - N/A   Overcast
10:15 PM 69.8 °F 62.6 °F 78% 30.03 in 10.0 mi SSE 10.4 mph - N/A   Overcast
10:35 PM 69.8 °F 62.6 °F 78% 30.03 in 10.0 mi SSE 10.4 mph - N/A   Overcast
10:55 PM 69.8 °F 62.6 °F 78% 30.03 in 10.0 mi SSE 9.2 mph - N/A   Overcast